Regional Weather Roundup
Issued by NWS Grand Forks, ND

Home | Current Version | Previous Version | Graphics & Text | Print | Product List | Glossary On
Versions: 1 2 3 4 5 6 7 8 9 10 11 12 13 14 15 16 17 18 19 20 21 22 23 24 25 26 27 28 29 30 31 32 33 34 35 36 37 38 39 40 41 42 43 44 45 46 47 48 49 50
000
ASUS43 KFGF 041331
RWRFGF
PRAIRIE TO PINES  WEATHER ROUNDUP
NATIONAL WEATHER SERVICE EASTERN NORTH DAKOTA/GRAND FORKS ND
800 AM CDT TUE AUG 04 2015

 **SATELLITE DATA USED TO AUGMENT SKY COVER AT AUTOMATED STATIONS**
 *****  WEATHER ACROSS EASTERN NORTH DAKOTA  *****

CITY           SKY/WX    TMP DP  RH WIND       PRES   REMARKS
GRAND FORKS    MOSUNNY   57  52  83 NW3       30.01R
GRAND FRKS AFB SUNNY     56  52  86 N5        30.02R
GRAND FRKS NWS   N/A     54 N/A N/A NE1         N/A
DEVILS LAKE    SUNNY     61  48  63 E5        30.03R
FARGO          SUNNY     58  50  75 CALM      30.02R
WAHPETON ARPT  SUNNY     57  52  82 NW3       30.03S
$$

 ***** WEATHER ACROSS CENTRAL AND WESTERN NORTH DAKOTA  *****

CITY           SKY/WX    TMP DP  RH WIND       PRES   REMARKS
BISMARCK       MOSUNNY   58  52  80 E6        30.01S
MINOT          SUNNY     57  50  77 CALM      30.01R
JAMESTOWN      SUNNY     59  55  87 CALM      30.02S
MINOT AFB      SUNNY     58  52  79 CALM      30.01R
GARRISON         N/A     58  54  86 CALM      30.00S
WILLISTON      SUNNY     66  51  58 NE5       29.97R
DICKINSON      MOSUNNY   57  50  77 E9        29.97R
HETTINGER      SUNNY     60  51  72 CALM      29.99R
$$

 *****  OTHER AIRPORT OBSERVATIONS IN OUR AREA  *****

CITY           SKY/WX    TMP DP  RH WIND       PRES   REMARKS
WALHALLA       FAIR      57  57 100 MISG      30.05R
GRAFTON AIRPOR FAIR      57  55  94 NW6       30.04R
VALLEY CITY AR FAIR      57  57 100 CALM      30.04R
CANDO          FAIR      55  50  82 NE5       30.04R
CAVALIER APRT  FAIR      57  54  88 NW6       30.04R
GWINNER        FAIR      64  57  77 SW6       30.03S
SHEYENNE NWR     N/A     59  55  86 CALM      29.95S
ROLLA          FAIR      57  50  77 CALM      30.06R
 ***** THE ABOVE OBSERVATIONS ARE NON NWS ARE NOT QUALITY
       CONTROLLED AND MAY MIS-REPORT RAIN FOR SNOW...
$$

  *****  WEATHER ACROSS NORTHERN MINNESOTA  *****

CITY           SKY/WX    TMP DP  RH WIND       PRES   REMARKS
FLAG ISLAND    SUNNY     55  52  88 N13       29.99R
WARROAD        SUNNY     57  54  88 N8        30.01R
ROSEAU         SUNNY     57  52  82 N5        30.00R
HALLOCK        SUNNY     57  54  88 CALM      30.03R
THF RVR FALLS  SUNNY     61  52  72 N7        30.02R
BAUDETTE       MOSUNNY   60  53  77 N9        29.97R
WASKISH        SUNNY     61  55  82 N5        29.98
CROOKSTON      SUNNY     57  54  88 CALM      30.02R
STEPHEN NDAWN    N/A     55  52  88 N6          N/A
GREENBUSH NDAW   N/A     55  54  94 N3          N/A
$$
  *****  WEATHER ACROSS CENTRAL AND WEST MINNESOTA  *****

CITY           SKY/WX    TMP DP  RH WIND       PRES   REMARKS
FOSSTON        SUNNY     59  55  88 CALM      30.02R
BEMIDJI        SUNNY     57  52  81 CALM      30.01R
PARK RAPIDS    SUNNY     60  51  72 N6        30.00R
ELBOW LAKE     FAIR      60  55  84 CALM      30.03S
WADENA         SUNNY     57  55  94 SW6       30.01R
DETROIT LAKES  SUNNY     61  50  67 W3        30.02R
MOORHEAD       SUNNY     55  52  88 CALM      30.03R
FERGUS FALLS   SUNNY     59  55  88 CALM      30.03R
MORRIS MN      SUNNY     64  57  77 CALM      30.02S
STAPLES        SUNNY     61  54  77 W6        30.01R
$$
  *****  WEATHER ELSEWHERE ACROSS MINNESOTA  *****

CITY           SKY/WX    TMP DP  RH WIND       PRES   REMARKS
DULUTH         SUNNY     59  52  77 NW3       29.95R
INTRNTL FALLS  MOSUNNY   59  55  87 N10       29.96R
ELY            CLOUDY    57  55  94 CALM      29.94S
CLOQUET        SUNNY     61  52  72 NW5       29.97R
WHEATON        SUNNY     57  54  88 CALM      30.04S
BRAINERD       SUNNY     57  54  89 S3        30.00R
HIBBING        SUNNY     58  52  80 NW3       29.95S
ALEXANDRIA     SUNNY     62  53  72 W10       30.05R
SAINT CLOUD    SUNNY     58  55  90 SW6       30.02R
MINNEAPOLIS    MOSUNNY   65  57  75 NW5       30.01R
$$

  *****  WEATHER ACROSS SOUTH DAKOTA  *****

CITY           SKY/WX    TMP DP  RH WIND       PRES   REMARKS
SIOUX FALLS    CLOUDY    63  58  83 NE5       30.03S
BROOKINGS      CLOUDY    59  54  82 CALM      30.06S
WATERTOWN      PTSUNNY   60  52  74 CALM      30.04S
HURON          CLOUDY    62  56  80 SE7       30.00S
SISSETON         N/A     63  54  72 SW3       30.01R
ABERDEEN       PTSUNNY   60  55  83 NE3       30.02S
MITCHELL       CLOUDY    63  61  93 E3        30.01F
PIERRE         CLOUDY    65  58  78 E12       29.90F
MOBRIDGE       PTSUNNY   63  57  81 E13       29.95S
RAPID CITY     PTSUNNY   64  59  83 SW6       29.96F
$$

  *****  SOME WEATHER IN NEARBY STATES *****

CITY           SKY/WX    TMP DP  RH WIND       PRES   REMARKS
GLASGOW MT     MOSUNNY   65  48  54 E17       29.88R
GREAT FALLS MT CLOUDY    72  42  34 SW6       29.90R
CHEYENNE WY    PTSUNNY   62  47  57 W7        30.11R
SCOTTSBLUFF NE MOSUNNY   61  54  77 CALM      29.99R
OMAHA NE       LGT RAIN  67  65  93 N6        30.04R
DES MOINES IA  CLOUDY    70  60  70 VRB3      30.00R
DAVENPORT IA   MOSUNNY   64  60  87 W3        29.99F
CHICAGO IL     MOSUNNY   68  57  68 W5        29.96R
EAU CLAIRE WI  SUNNY     61  54  77 W6        29.99R
LA CROSSE WI   SUNNY     63  56  78 S5        29.99R
$$

  *****  SOME NATIONAL WEATHER *****

CITY           SKY/WX    TMP DP  RH WIND       PRES   REMARKS
LA GUARDIA NY  CLOUDY    77  63  61 SW7       29.84F
RALEIGH NC     MOSUNNY   81  74  79 SW7       30.02R
ATLANTA GA     MOSUNNY   81  66  60 VRB3      30.02R
NEW ORLEANS LA MOSUNNY   83  76  79 SE9       29.97R HX  91
OKLAHOMA CITY  LGT RAIN  71  70  96 SW8       30.00S FOG
ALBUQUERQUE NM PTCLDY    65  48  54 NW5       30.20R
SALT LAKE CITY CLEAR     60  54  80 SE5       30.10R
LOS ANGELES CA CLEAR     67  63  87 S3        29.89R
BOISE ID       PTCLDY    66  54  65 S5        29.97R
SEATTLE WA     MOCLDY    58  54  86 S6        30.01R
$$

*** WEATHER ACROSS MANITOBA...SASKATCHEWAN AND ONTARIO ***
                ***ONTARIO***

CITY           SKY/WX    TMP DP  RH WIND       PRES   REMARKS
GERALDTON      DRIZZLE   52  50  93 NW8       29.85R
THUNDER BAY    LGT RAIN  57  52  82 NW12      29.91R
SIOUX LOOKOUT  CLOUDY    52  48  87 N8        29.97R
TORONTO        MOSUNNY   70  55  60 W6        29.87S
BIG TROUT LK   CLOUDY    50  48  93 N8        29.96S
PICKLE LAKE    CLOUDY    52  48  87 N7        29.95R
DRYDEN         CLOUDY    50  48  93 N6        29.99R
KENORA         PTSUNNY   52  50  93 N8        30.01R
$$
                *** MANITOBA***

CITY           SKY/WX    TMP DP  RH WIND       PRES   REMARKS
BRANDON        MOSUNNY   54  52  94 E5        30.05R
DAUPHIN        SUNNY     52  50  93 NW3       30.05R
ISLAND LAKE    LGT RAIN  54  52  94 VRB2      30.02
PILOT MOUND      N/A     54  50  87 E1          N/A
THE PAS        MOSUNNY   61  55  82 N3        30.04R
THOMPSON       LGT RAIN  54  52  94 N6        30.04R FOG
WINNIPEG       MOSUNNY   55  52  88 NE3       30.04R
LYNN LAKE      CLOUDY    55  52  88 NE3       30.06R
CHURCHILL      CLOUDY    48  45  87 N8        30.04R
GILLAM         CLOUDY    50  48  93 N8        30.00S
$$
                ***SASKATCHEWAN***

CITY           SKY/WX    TMP DP  RH WIND       PRES   REMARKS
ESTEVAN        MOSUNNY   57  50  77 E10       30.00R
KINDERSLEY     CLOUDY    63  52  67 E17G23    29.82F
LLOYDMINSTER   LGT RAIN  59  55  88 E7        29.90F
PRINCE ALBERT  MOSUNNY   55  54  94 E5        29.98S
REGINA         MOSUNNY   59  48  67 SE12      29.98S
YORKTON        SUNNY     54  50  87 SE5       30.02R
N. BATTLEFORD  LGT RAIN  61  54  77 E9        29.95R
LA RONGE       PTSUNNY   61  52  72 E3        30.01S
SASKATOON      PTSUNNY   63  54  72 SE10      29.98R
SWIFT CURRENT  MOSUNNY   59  52  77 SE12G21   29.87S
$$
NOTE: THESE ARE AUTOMATED STATIONS WITH LIMITED QUALITY CONTROL
      "FAIR" INDICATES FEW OR NO CLOUDS BELOW 12,000 FEET WITH NO
      SIGNIFICANT WEATHER AND/OR OBSTRUCTIONS TO VISIBILITY.
      SKY/WX - SKY CONDITION AND SIGNIFICANT WEATHER.
      TMP - AIR TEMPERATURE.    DP   - DEWPOINT TEMPERATURE.
      RH  - RELATIVE HUMIDITY.  PRES - PRESSURE.
      HX  - HEAT INDEX.         WCI  - WIND CHILL INDEX.
$


USA.gov is the U.S. government's official web portal to all federal, state and local government web resources and services.